#datetime,building,power
2022-02-22T00:00:00,mcc,47.09
2022-02-22T00:01:00,mcc,45.01
2022-02-22T00:02:00,mcc,43.52
2022-02-22T00:03:00,mcc,41.56
2022-02-22T00:04:00,mcc,49.20
2022-02-22T00:05:00,mcc,42.30
2022-02-22T00:06:00,mcc,39.70
2022-02-22T00:07:00,mcc,41.56
2022-02-22T00:08:00,mcc,44.75
2022-02-22T00:09:00,mcc,41.57
2022-02-22T00:10:00,mcc,41.60
2022-02-22T00:11:00,mcc,39.75
2022-02-22T00:12:00,mcc,39.92
2022-02-22T00:13:00,mcc,45.42
2022-02-22T00:14:00,mcc,44.42
2022-02-22T00:15:00,mcc,42.66
2022-02-22T00:16:00,mcc,40.53
2022-02-22T00:17:00,mcc,40.37
2022-02-22T00:18:00,mcc,39.72
2022-02-22T00:19:00,mcc,42.17
2022-02-22T00:20:00,mcc,40.66
2022-02-22T00:21:00,mcc,41.33
2022-02-22T00:22:00,mcc,43.18
2022-02-22T00:23:00,mcc,40.44
2022-02-22T00:24:00,mcc,39.45
2022-02-22T00:25:00,mcc,39.39
2022-02-22T00:26:00,mcc,40.62
2022-02-22T00:27:00,mcc,41.95
2022-02-22T00:28:00,mcc,42.46
2022-02-22T00:29:00,mcc,39.08
2022-02-22T00:30:00,mcc,41.44
2022-02-22T00:31:00,mcc,39.36
2022-02-22T00:32:00,mcc,40.66
2022-02-22T00:33:00,mcc,43.22
2022-02-22T00:34:00,mcc,41.83
2022-02-22T00:35:00,mcc,41.73
2022-02-22T00:36:00,mcc,43.62
2022-02-22T00:37:00,mcc,44.76
2022-02-22T00:38:00,mcc,44.47
2022-02-22T00:39:00,mcc,41.24
2022-02-22T00:40:00,mcc,46.95
2022-02-22T00:41:00,mcc,40.32
2022-02-22T00:42:00,mcc,39.82
2022-02-22T00:43:00,mcc,40.03
2022-02-22T00:44:00,mcc,39.48
2022-02-22T00:45:00,mcc,38.07
2022-02-22T00:46:00,mcc,38.82
2022-02-22T00:47:00,mcc,37.17
2022-02-22T00:48:00,mcc,38.30
2022-02-22T00:49:00,mcc,40.21
2022-02-22T00:50:00,mcc,39.58
2022-02-22T00:51:00,mcc,39.24
2022-02-22T00:52:00,mcc,40.62
2022-02-22T00:53:00,mcc,37.93
2022-02-22T00:54:00,mcc,37.57
2022-02-22T00:55:00,mcc,34.23
2022-02-22T00:56:00,mcc,35.99
2022-02-22T00:57:00,mcc,36.47
2022-02-22T00:58:00,mcc,46.74
2022-02-22T00:59:00,mcc,36.20
2022-02-22T01:00:00,mcc,38.80
2022-02-22T01:01:00,mcc,36.75
2022-02-22T01:02:00,mcc,37.07
2022-02-22T01:03:00,mcc,38.26
2022-02-22T01:04:00,mcc,37.72
2022-02-22T01:05:00,mcc,35.70
2022-02-22T01:06:00,mcc,37.24
2022-02-22T01:07:00,mcc,36.16
2022-02-22T01:08:00,mcc,38.15
2022-02-22T01:09:00,mcc,35.70
2022-02-22T01:10:00,mcc,35.94
2022-02-22T01:11:00,mcc,39.62
2022-02-22T01:12:00,mcc,37.96
2022-02-22T01:13:00,mcc,38.01
2022-02-22T01:14:00,mcc,41.12
2022-02-22T01:15:00,mcc,38.80
2022-02-22T01:16:00,mcc,38.87
2022-02-22T01:17:00,mcc,34.27
2022-02-22T01:18:00,mcc,35.07
2022-02-22T01:19:00,mcc,36.41
2022-02-22T01:20:00,mcc,34.84
2022-02-22T01:21:00,mcc,35.41
2022-02-22T01:22:00,mcc,38.94
2022-02-22T01:23:00,mcc,37.77
2022-02-22T01:24:00,mcc,38.50
2022-02-22T01:25:00,mcc,39.65
2022-02-22T01:26:00,mcc,37.70
2022-02-22T01:27:00,mcc,38.33
2022-02-22T01:28:00,mcc,37.33
2022-02-22T01:29:00,mcc,35.80
2022-02-22T01:30:00,mcc,37.02
2022-02-22T01:31:00,mcc,34.91
2022-02-22T01:32:00,mcc,36.64
2022-02-22T01:33:00,mcc,37.47
2022-02-22T01:34:00,mcc,37.63
2022-02-22T01:35:00,mcc,35.80
2022-02-22T01:36:00,mcc,35.74
2022-02-22T01:37:00,mcc,37.70
2022-02-22T01:38:00,mcc,46.44
2022-02-22T01:39:00,mcc,42.78
2022-02-22T01:40:00,mcc,43.70
2022-02-22T01:41:00,mcc,44.88
2022-02-22T01:42:00,mcc,42.08
2022-02-22T01:43:00,mcc,33.60
2022-02-22T01:44:00,mcc,35.92
2022-02-22T01:45:00,mcc,35.35
2022-02-22T01:46:00,mcc,40.34
2022-02-22T01:47:00,mcc,38.00
2022-02-22T01:48:00,mcc,39.27
2022-02-22T01:49:00,mcc,39.90
2022-02-22T01:50:00,mcc,39.15
2022-02-22T01:51:00,mcc,36.96
2022-02-22T01:52:00,mcc,46.98
2022-02-22T01:53:00,mcc,38.61
2022-02-22T01:54:00,mcc,37.25
2022-02-22T01:55:00,mcc,40.37
2022-02-22T01:56:00,mcc,39.42
2022-02-22T01:57:00,mcc,42.66
2022-02-22T01:58:00,mcc,38.25
2022-02-22T01:59:00,mcc,37.57
2022-02-22T02:00:00,mcc,39.84
2022-02-22T02:01:00,mcc,35.04
2022-02-22T02:02:00,mcc,34.82
2022-02-22T02:03:00,mcc,46.91
2022-02-22T02:04:00,mcc,48.98
2022-02-22T02:05:00,mcc,49.12
2022-02-22T02:06:00,mcc,47.01
2022-02-22T02:07:00,mcc,35.01
2022-02-22T02:08:00,mcc,36.31
2022-02-22T02:09:00,mcc,33.99
2022-02-22T02:10:00,mcc,36.75
2022-02-22T02:11:00,mcc,38.04
2022-02-22T02:12:00,mcc,37.87
2022-02-22T02:13:00,mcc,40.50
2022-02-22T02:14:00,mcc,39.46
2022-02-22T02:15:00,mcc,37.86
2022-02-22T02:16:00,mcc,39.15
2022-02-22T02:17:00,mcc,37.55
2022-02-22T02:18:00,mcc,35.97
2022-02-22T02:19:00,mcc,39.12
2022-02-22T02:20:00,mcc,36.52
2022-02-22T02:21:00,mcc,36.46
2022-02-22T02:22:00,mcc,34.02
2022-02-22T02:23:00,mcc,33.69
2022-02-22T02:24:00,mcc,37.59
2022-02-22T02:25:00,mcc,34.97
2022-02-22T02:26:00,mcc,36.74
2022-02-22T02:27:00,mcc,39.31
2022-02-22T02:28:00,mcc,43.91
2022-02-22T02:29:00,mcc,36.70
2022-02-22T02:30:00,mcc,36.25
2022-02-22T02:31:00,mcc,34.75
2022-02-22T02:32:00,mcc,35.75
2022-02-22T02:33:00,mcc,35.20
2022-02-22T02:34:00,mcc,37.49
2022-02-22T02:35:00,mcc,40.24
2022-02-22T02:36:00,mcc,40.15
2022-02-22T02:37:00,mcc,39.53
2022-02-22T02:38:00,mcc,39.02
2022-02-22T02:39:00,mcc,40.91
2022-02-22T02:40:00,mcc,39.97
2022-02-22T02:41:00,mcc,37.35
2022-02-22T02:42:00,mcc,36.03
2022-02-22T02:43:00,mcc,37.90
2022-02-22T02:44:00,mcc,36.20
2022-02-22T02:45:00,mcc,37.43
2022-02-22T02:46:00,mcc,34.11
2022-02-22T02:47:00,mcc,34.72
2022-02-22T02:48:00,mcc,32.26
2022-02-22T02:49:00,mcc,33.35
2022-02-22T02:50:00,mcc,31.85
2022-02-22T02:51:00,mcc,32.36
2022-02-22T02:52:00,mcc,32.39
2022-02-22T02:53:00,mcc,34.05
2022-02-22T02:54:00,mcc,38.01
2022-02-22T02:55:00,mcc,36.30
2022-02-22T02:56:00,mcc,34.44
2022-02-22T02:57:00,mcc,36.31
2022-02-22T02:58:00,mcc,35.92
2022-02-22T02:59:00,mcc,37.30
2022-02-22T03:00:00,mcc,38.57
2022-02-22T03:01:00,mcc,39.86
2022-02-22T03:02:00,mcc,39.56
2022-02-22T03:03:00,mcc,39.00
2022-02-22T03:04:00,mcc,38.97
2022-02-22T03:05:00,mcc,48.09
2022-02-22T03:06:00,mcc,37.38
2022-02-22T03:07:00,mcc,35.37
2022-02-22T03:08:00,mcc,35.66
2022-02-22T03:09:00,mcc,35.47
2022-02-22T03:10:00,mcc,34.75
2022-02-22T03:11:00,mcc,33.62
2022-02-22T03:12:00,mcc,34.54
2022-02-22T03:13:00,mcc,35.11
2022-02-22T03:14:00,mcc,33.42
2022-02-22T03:15:00,mcc,34.87
2022-02-22T03:16:00,mcc,37.46
2022-02-22T03:17:00,mcc,34.72
2022-02-22T03:18:00,mcc,34.44
2022-02-22T03:19:00,mcc,37.78
2022-02-22T03:20:00,mcc,34.45
2022-02-22T03:21:00,mcc,32.83
2022-02-22T03:22:00,mcc,34.86
2022-02-22T03:23:00,mcc,36.52
2022-02-22T03:24:00,mcc,38.78
2022-02-22T03:25:00,mcc,37.23
2022-02-22T03:26:00,mcc,36.88
2022-02-22T03:27:00,mcc,39.34
2022-02-22T03:28:00,mcc,37.31
2022-02-22T03:29:00,mcc,35.38
2022-02-22T03:30:00,mcc,39.27
2022-02-22T03:31:00,mcc,35.54
2022-02-22T03:32:00,mcc,34.83
2022-02-22T03:33:00,mcc,34.80
2022-02-22T03:34:00,mcc,34.67
2022-02-22T03:35:00,mcc,34.89
2022-02-22T03:36:00,mcc,34.70
2022-02-22T03:37:00,mcc,42.61
2022-02-22T03:38:00,mcc,35.00
2022-02-22T03:39:00,mcc,34.74
2022-02-22T03:40:00,mcc,35.54
2022-02-22T03:41:00,mcc,35.07
2022-02-22T03:42:00,mcc,32.87
2022-02-22T03:43:00,mcc,33.35
2022-02-22T03:44:00,mcc,34.03
2022-02-22T03:45:00,mcc,34.74
2022-02-22T03:46:00,mcc,36.90
2022-02-22T03:47:00,mcc,38.21
2022-02-22T03:48:00,mcc,40.95
2022-02-22T03:49:00,mcc,42.69
2022-02-22T03:50:00,mcc,39.78
2022-02-22T03:51:00,mcc,37.55
2022-02-22T03:52:00,mcc,41.56
2022-02-22T03:53:00,mcc,38.78
2022-02-22T03:54:00,mcc,38.80
2022-02-22T03:55:00,mcc,38.30
2022-02-22T03:56:00,mcc,37.61
2022-02-22T03:57:00,mcc,39.30
2022-02-22T03:58:00,mcc,38.19
2022-02-22T03:59:00,mcc,36.10
2022-02-22T04:00:00,mcc,45.62
2022-02-22T04:01:00,mcc,36.00
2022-02-22T04:02:00,mcc,35.64
2022-02-22T04:03:00,mcc,37.83
2022-02-22T04:04:00,mcc,35.90
2022-02-22T04:05:00,mcc,37.53
2022-02-22T04:06:00,mcc,40.28
2022-02-22T04:07:00,mcc,37.26
2022-02-22T04:08:00,mcc,38.99
2022-02-22T04:09:00,mcc,37.32
2022-02-22T04:10:00,mcc,36.54
2022-02-22T04:11:00,mcc,38.49
2022-02-22T04:12:00,mcc,39.76
2022-02-22T04:13:00,mcc,38.59
2022-02-22T04:14:00,mcc,40.27
2022-02-22T04:15:00,mcc,36.90
2022-02-22T04:16:00,mcc,36.80
2022-02-22T04:17:00,mcc,36.69
2022-02-22T04:18:00,mcc,45.12
2022-02-22T04:19:00,mcc,36.47
2022-02-22T04:20:00,mcc,35.32
2022-02-22T04:21:00,mcc,33.90
2022-02-22T04:22:00,mcc,39.78
2022-02-22T04:23:00,mcc,38.26
2022-02-22T04:24:00,mcc,36.98
2022-02-22T04:25:00,mcc,37.34
2022-02-22T04:26:00,mcc,39.09
2022-02-22T04:27:00,mcc,39.28
2022-02-22T04:28:00,mcc,38.35
2022-02-22T04:29:00,mcc,37.53
2022-02-22T04:30:00,mcc,39.46
2022-02-22T04:31:00,mcc,38.59
2022-02-22T04:32:00,mcc,41.28
2022-02-22T04:33:00,mcc,41.69
2022-02-22T04:34:00,mcc,40.22
2022-02-22T04:35:00,mcc,37.33
2022-02-22T04:36:00,mcc,40.11
2022-02-22T04:37:00,mcc,40.74
2022-02-22T04:38:00,mcc,39.65
2022-02-22T04:39:00,mcc,40.40
2022-02-22T04:40:00,mcc,40.19
2022-02-22T04:41:00,mcc,40.24
2022-02-22T04:42:00,mcc,40.02
2022-02-22T04:43:00,mcc,36.98
2022-02-22T04:44:00,mcc,39.89
2022-02-22T04:45:00,mcc,36.11
2022-02-22T04:46:00,mcc,38.16
2022-02-22T04:47:00,mcc,41.79
2022-02-22T04:48:00,mcc,40.61
2022-02-22T04:49:00,mcc,37.50
2022-02-22T04:50:00,mcc,36.23
2022-02-22T04:51:00,mcc,33.77
2022-02-22T04:52:00,mcc,39.25
2022-02-22T04:53:00,mcc,38.24
2022-02-22T04:54:00,mcc,47.24
2022-02-22T04:55:00,mcc,40.73
2022-02-22T04:56:00,mcc,40.52
2022-02-22T04:57:00,mcc,37.95
2022-02-22T04:58:00,mcc,38.03
2022-02-22T04:59:00,mcc,37.27
2022-02-22T05:00:00,mcc,39.86
2022-02-22T05:01:00,mcc,41.50
2022-02-22T05:02:00,mcc,38.54
2022-02-22T05:03:00,mcc,47.01
2022-02-22T05:04:00,mcc,45.67
2022-02-22T05:05:00,mcc,43.72
2022-02-22T05:06:00,mcc,47.05
2022-02-22T05:07:00,mcc,46.71
2022-02-22T05:08:00,mcc,46.01
2022-02-22T05:09:00,mcc,44.74
2022-02-22T05:10:00,mcc,45.18
2022-02-22T05:11:00,mcc,45.58
2022-02-22T05:12:00,mcc,51.29
2022-02-22T05:13:00,mcc,44.70
2022-02-22T05:14:00,mcc,45.97
2022-02-22T05:15:00,mcc,48.51
2022-02-22T05:16:00,mcc,46.15
2022-02-22T05:17:00,mcc,56.90
2022-02-22T05:18:00,mcc,49.75
2022-02-22T05:19:00,mcc,48.00
2022-02-22T05:20:00,mcc,57.14
2022-02-22T05:21:00,mcc,58.84
2022-02-22T05:22:00,mcc,55.04
2022-02-22T05:23:00,mcc,46.52
2022-02-22T05:24:00,mcc,46.14
2022-02-22T05:25:00,mcc,48.95
2022-02-22T05:26:00,mcc,49.65
2022-02-22T05:27:00,mcc,49.83
2022-02-22T05:28:00,mcc,52.11
2022-02-22T05:29:00,mcc,50.49
2022-02-22T05:30:00,mcc,57.14
2022-02-22T05:31:00,mcc,47.33
2022-02-22T05:32:00,mcc,46.97
2022-02-22T05:33:00,mcc,49.67
2022-02-22T05:34:00,mcc,50.39
2022-02-22T05:35:00,mcc,51.34
2022-02-22T05:36:00,mcc,52.58
2022-02-22T05:37:00,mcc,48.23
2022-02-22T05:38:00,mcc,49.81
2022-02-22T05:39:00,mcc,49.64
2022-02-22T05:40:00,mcc,49.25
2022-02-22T05:41:00,mcc,51.45
2022-02-22T05:42:00,mcc,50.23
2022-02-22T05:43:00,mcc,50.55
2022-02-22T05:44:00,mcc,49.55
2022-02-22T05:45:00,mcc,46.66
2022-02-22T05:46:00,mcc,46.77
2022-02-22T05:47:00,mcc,45.49
2022-02-22T05:48:00,mcc,52.68
2022-02-22T05:49:00,mcc,52.14
2022-02-22T05:50:00,mcc,53.31
2022-02-22T05:51:00,mcc,49.06
2022-02-22T05:52:00,mcc,40.65
2022-02-22T05:53:00,mcc,40.50
2022-02-22T05:54:00,mcc,39.21
2022-02-22T05:55:00,mcc,50.99
2022-02-22T05:56:00,mcc,48.71
2022-02-22T05:57:00,mcc,49.41
2022-02-22T05:58:00,mcc,49.91
2022-02-22T05:59:00,mcc,41.55
2022-02-22T06:00:00,mcc,40.91
2022-02-22T06:01:00,mcc,41.30
2022-02-22T06:02:00,mcc,40.68
2022-02-22T06:03:00,mcc,39.34
2022-02-22T06:04:00,mcc,39.64
2022-02-22T06:05:00,mcc,39.55
2022-02-22T06:06:00,mcc,47.86
2022-02-22T06:07:00,mcc,37.73
2022-02-22T06:08:00,mcc,38.49
2022-02-22T06:09:00,mcc,44.35
2022-02-22T06:10:00,mcc,39.38
2022-02-22T06:11:00,mcc,39.58
2022-02-22T06:12:00,mcc,43.09
2022-02-22T06:13:00,mcc,42.88
2022-02-22T06:14:00,mcc,41.83
2022-02-22T06:15:00,mcc,43.85
2022-02-22T06:16:00,mcc,41.44
2022-02-22T06:17:00,mcc,38.84
2022-02-22T06:18:00,mcc,38.94
2022-02-22T06:19:00,mcc,39.47
2022-02-22T06:20:00,mcc,41.24
2022-02-22T06:21:00,mcc,39.47
2022-02-22T06:22:00,mcc,38.45
2022-02-22T06:23:00,mcc,42.02
2022-02-22T06:24:00,mcc,49.08
2022-02-22T06:25:00,mcc,41.78
2022-02-22T06:26:00,mcc,41.71
2022-02-22T06:27:00,mcc,41.21
2022-02-22T06:28:00,mcc,41.73
2022-02-22T06:29:00,mcc,43.47
2022-02-22T06:30:00,mcc,46.29
2022-02-22T06:31:00,mcc,48.29
2022-02-22T06:32:00,mcc,43.64
2022-02-22T06:33:00,mcc,38.38
2022-02-22T06:34:00,mcc,38.61
2022-02-22T06:35:00,mcc,39.17
2022-02-22T06:36:00,mcc,48.95
2022-02-22T06:37:00,mcc,48.38
2022-02-22T06:38:00,mcc,52.62
2022-02-22T06:39:00,mcc,59.23
2022-02-22T06:40:00,mcc,56.10
2022-02-22T06:41:00,mcc,56.75
2022-02-22T06:42:00,mcc,55.25
2022-02-22T06:43:00,mcc,50.57
2022-02-22T06:44:00,mcc,50.77
2022-02-22T06:45:00,mcc,52.75
2022-02-22T06:46:00,mcc,52.59
2022-02-22T06:47:00,mcc,52.97
2022-02-22T06:48:00,mcc,51.44
2022-02-22T06:49:00,mcc,50.35
2022-02-22T06:50:00,mcc,50.58
2022-02-22T06:51:00,mcc,47.21
2022-02-22T06:52:00,mcc,47.71
2022-02-22T06:53:00,mcc,51.43
2022-02-22T06:54:00,mcc,42.74
2022-02-22T06:55:00,mcc,40.89
2022-02-22T06:56:00,mcc,40.54
2022-02-22T06:57:00,mcc,42.37
2022-02-22T06:58:00,mcc,52.00
2022-02-22T06:59:00,mcc,53.03
2022-02-22T07:00:00,mcc,51.97
2022-02-22T07:01:00,mcc,53.91
2022-02-22T07:02:00,mcc,50.95
2022-02-22T07:03:00,mcc,51.32
2022-02-22T07:04:00,mcc,42.91
2022-02-22T07:05:00,mcc,42.43
2022-02-22T07:06:00,mcc,51.16
2022-02-22T07:07:00,mcc,43.52
2022-02-22T07:08:00,mcc,49.06
2022-02-22T07:09:00,mcc,51.90
2022-02-22T07:10:00,mcc,51.58
2022-02-22T07:11:00,mcc,44.32
2022-02-22T07:12:00,mcc,44.71
2022-02-22T07:13:00,mcc,42.04
2022-02-22T07:14:00,mcc,51.57
2022-02-22T07:15:00,mcc,52.64
2022-02-22T07:16:00,mcc,51.57
2022-02-22T07:17:00,mcc,47.45
2022-02-22T07:18:00,mcc,47.03
2022-02-22T07:19:00,mcc,57.25
2022-02-22T07:20:00,mcc,43.92
2022-02-22T07:21:00,mcc,52.24
2022-02-22T07:22:00,mcc,52.02
2022-02-22T07:23:00,mcc,53.12
2022-02-22T07:24:00,mcc,45.95
2022-02-22T07:25:00,mcc,45.03
2022-02-22T07:26:00,mcc,42.13
2022-02-22T07:27:00,mcc,42.55
2022-02-22T07:28:00,mcc,43.38
2022-02-22T07:29:00,mcc,41.71
2022-02-22T07:30:00,mcc,49.44
2022-02-22T07:31:00,mcc,60.57
2022-02-22T07:32:00,mcc,43.27
2022-02-22T07:33:00,mcc,42.18
2022-02-22T07:34:00,mcc,42.08
2022-02-22T07:35:00,mcc,58.29
2022-02-22T07:36:00,mcc,44.42
2022-02-22T07:37:00,mcc,61.39
2022-02-22T07:38:00,mcc,50.35
2022-02-22T07:39:00,mcc,47.18
2022-02-22T07:40:00,mcc,44.70
2022-02-22T07:41:00,mcc,44.64
2022-02-22T07:42:00,mcc,46.80
2022-02-22T07:43:00,mcc,55.66
2022-02-22T07:44:00,mcc,52.74
2022-02-22T07:45:00,mcc,47.48
2022-02-22T07:46:00,mcc,49.73
2022-02-22T07:47:00,mcc,52.01
2022-02-22T07:48:00,mcc,52.20
2022-02-22T07:49:00,mcc,51.61
2022-02-22T07:50:00,mcc,69.01
2022-02-22T07:51:00,mcc,51.04
2022-02-22T07:52:00,mcc,48.40
2022-02-22T07:53:00,mcc,49.59
2022-02-22T07:54:00,mcc,56.75
2022-02-22T07:55:00,mcc,55.19
2022-02-22T07:56:00,mcc,57.26
2022-02-22T07:57:00,mcc,49.73
2022-02-22T07:58:00,mcc,53.86
2022-02-22T07:59:00,mcc,50.93
2022-02-22T08:00:00,mcc,57.61
2022-02-22T08:01:00,mcc,60.14
2022-02-22T08:02:00,mcc,65.07
2022-02-22T08:03:00,mcc,57.29
2022-02-22T08:04:00,mcc,49.09
2022-02-22T08:05:00,mcc,47.70
2022-02-22T08:06:00,mcc,50.58
2022-02-22T08:07:00,mcc,48.50
2022-02-22T08:08:00,mcc,56.48
2022-02-22T08:09:00,mcc,47.97
2022-02-22T08:10:00,mcc,45.78
2022-02-22T08:11:00,mcc,46.54
2022-02-22T08:12:00,mcc,63.11
2022-02-22T08:13:00,mcc,52.80
2022-02-22T08:14:00,mcc,54.26
2022-02-22T08:15:00,mcc,48.69
2022-02-22T08:16:00,mcc,48.97
2022-02-22T08:17:00,mcc,48.93
2022-02-22T08:18:00,mcc,52.41
2022-02-22T08:19:00,mcc,51.93
2022-02-22T08:20:00,mcc,53.83
2022-02-22T08:21:00,mcc,52.43
2022-02-22T08:22:00,mcc,54.17
2022-02-22T08:23:00,mcc,72.88
2022-02-22T08:24:00,mcc,51.69
2022-02-22T08:25:00,mcc,52.30
2022-02-22T08:26:00,mcc,51.81
2022-02-22T08:27:00,mcc,52.45
2022-02-22T08:28:00,mcc,52.72
2022-02-22T08:29:00,mcc,51.09
2022-02-22T08:30:00,mcc,51.17
2022-02-22T08:31:00,mcc,61.65
2022-02-22T08:32:00,mcc,62.34
2022-02-22T08:33:00,mcc,61.07
2022-02-22T08:34:00,mcc,58.15
2022-02-22T08:35:00,mcc,50.61
2022-02-22T08:36:00,mcc,49.97
2022-02-22T08:37:00,mcc,47.85
2022-02-22T08:38:00,mcc,48.86
2022-02-22T08:39:00,mcc,59.48
2022-02-22T08:40:00,mcc,49.15
2022-02-22T08:41:00,mcc,50.23
2022-02-22T08:42:00,mcc,54.71
2022-02-22T08:43:00,mcc,60.09
2022-02-22T08:44:00,mcc,52.68
2022-02-22T08:45:00,mcc,52.43
2022-02-22T08:46:00,mcc,50.19
2022-02-22T08:47:00,mcc,52.25
2022-02-22T08:48:00,mcc,73.41
2022-02-22T08:49:00,mcc,52.12
2022-02-22T08:50:00,mcc,53.50
2022-02-22T08:51:00,mcc,52.97
2022-02-22T08:52:00,mcc,51.74
2022-02-22T08:53:00,mcc,60.35
2022-02-22T08:54:00,mcc,52.48
2022-02-22T08:55:00,mcc,53.30
2022-02-22T08:56:00,mcc,56.00
2022-02-22T08:57:00,mcc,75.80
2022-02-22T08:58:00,mcc,52.15
2022-02-22T08:59:00,mcc,50.17
2022-02-22T09:00:00,mcc,57.23
2022-02-22T09:01:00,mcc,77.99
2022-02-22T09:02:00,mcc,51.16
2022-02-22T09:03:00,mcc,49.41
2022-02-22T09:04:00,mcc,50.65
2022-02-22T09:05:00,mcc,57.54
2022-02-22T09:06:00,mcc,48.41
2022-02-22T09:07:00,mcc,48.69
2022-02-22T09:08:00,mcc,58.87
2022-02-22T09:09:00,mcc,48.82
2022-02-22T09:10:00,mcc,49.23
2022-02-22T09:11:00,mcc,55.09
2022-02-22T09:12:00,mcc,49.38
2022-02-22T09:13:00,mcc,45.87
2022-02-22T09:14:00,mcc,47.97
2022-02-22T09:15:00,mcc,48.55
2022-02-22T09:16:00,mcc,47.47
2022-02-22T09:17:00,mcc,56.38
2022-02-22T09:18:00,mcc,48.80
2022-02-22T09:19:00,mcc,48.31
2022-02-22T09:20:00,mcc,47.98
2022-02-22T09:21:00,mcc,49.16
2022-02-22T09:22:00,mcc,51.37
2022-02-22T09:23:00,mcc,55.38
2022-02-22T09:24:00,mcc,54.48
2022-02-22T09:25:00,mcc,52.78
2022-02-22T09:26:00,mcc,63.13
2022-02-22T09:27:00,mcc,51.05
2022-02-22T09:28:00,mcc,50.07
2022-02-22T09:29:00,mcc,50.37
2022-02-22T09:30:00,mcc,50.89
2022-02-22T09:31:00,mcc,48.37
2022-02-22T09:32:00,mcc,46.90
2022-02-22T09:33:00,mcc,47.18
2022-02-22T09:34:00,mcc,50.50
2022-02-22T09:35:00,mcc,45.85
2022-02-22T09:36:00,mcc,55.68
2022-02-22T09:37:00,mcc,49.12
2022-02-22T09:38:00,mcc,46.79
2022-02-22T09:39:00,mcc,47.75
2022-02-22T09:40:00,mcc,49.09
2022-02-22T09:41:00,mcc,47.67
2022-02-22T09:42:00,mcc,57.36
2022-02-22T09:43:00,mcc,56.89
2022-02-22T09:44:00,mcc,60.04
2022-02-22T09:45:00,mcc,78.07
2022-02-22T09:46:00,mcc,61.93
2022-02-22T09:47:00,mcc,62.13
2022-02-22T09:48:00,mcc,57.65
2022-02-22T09:49:00,mcc,48.40
2022-02-22T09:50:00,mcc,51.95
2022-02-22T09:51:00,mcc,49.77
2022-02-22T09:52:00,mcc,51.20
2022-02-22T09:53:00,mcc,52.48
2022-02-22T09:54:00,mcc,49.98
2022-02-22T09:55:00,mcc,49.89
2022-02-22T09:56:00,mcc,50.41
2022-02-22T09:57:00,mcc,52.29
2022-02-22T09:58:00,mcc,48.16
2022-02-22T09:59:00,mcc,48.86
2022-02-22T10:00:00,mcc,48.44
2022-02-22T10:01:00,mcc,47.87
2022-02-22T10:02:00,mcc,49.22
2022-02-22T10:03:00,mcc,49.80
2022-02-22T10:04:00,mcc,50.66
2022-02-22T10:05:00,mcc,51.04
2022-02-22T10:06:00,mcc,48.15
2022-02-22T10:07:00,mcc,52.08
2022-02-22T10:08:00,mcc,49.37
2022-02-22T10:09:00,mcc,47.14
2022-02-22T10:10:00,mcc,50.85
2022-02-22T10:11:00,mcc,51.16
2022-02-22T10:12:00,mcc,51.73
2022-02-22T10:13:00,mcc,51.39
2022-02-22T10:14:00,mcc,67.76
2022-02-22T10:15:00,mcc,53.27
2022-02-22T10:16:00,mcc,53.55
2022-02-22T10:17:00,mcc,52.89
2022-02-22T10:18:00,mcc,53.44
2022-02-22T10:19:00,mcc,59.46
2022-02-22T10:20:00,mcc,47.30
2022-02-22T10:21:00,mcc,47.21
2022-02-22T10:22:00,mcc,55.95
2022-02-22T10:23:00,mcc,58.22
2022-02-22T10:24:00,mcc,55.74
2022-02-22T10:25:00,mcc,55.86
2022-02-22T10:26:00,mcc,57.28
2022-02-22T10:27:00,mcc,54.25
2022-02-22T10:28:00,mcc,56.38
2022-02-22T10:29:00,mcc,53.67
2022-02-22T10:30:00,mcc,51.12
2022-02-22T10:31:00,mcc,49.00
2022-02-22T10:32:00,mcc,58.11
2022-02-22T10:33:00,mcc,63.17
2022-02-22T10:34:00,mcc,55.23
2022-02-22T10:35:00,mcc,58.27
2022-02-22T10:36:00,mcc,60.23
2022-02-22T10:37:00,mcc,56.92
2022-02-22T10:38:00,mcc,52.65
2022-02-22T10:39:00,mcc,58.55
2022-02-22T10:40:00,mcc,55.14
2022-02-22T10:41:00,mcc,50.15
2022-02-22T10:42:00,mcc,65.81
2022-02-22T10:43:00,mcc,50.62
2022-02-22T10:44:00,mcc,55.28
2022-02-22T10:45:00,mcc,56.48
2022-02-22T10:46:00,mcc,53.35
2022-02-22T10:47:00,mcc,51.44
2022-02-22T10:48:00,mcc,61.27
2022-02-22T10:49:00,mcc,54.10
2022-02-22T10:50:00,mcc,54.49
2022-02-22T10:51:00,mcc,53.17
2022-02-22T10:52:00,mcc,51.63
2022-02-22T10:53:00,mcc,53.20
2022-02-22T10:54:00,mcc,56.84
2022-02-22T10:55:00,mcc,66.26
2022-02-22T10:56:00,mcc,61.13
2022-02-22T10:57:00,mcc,60.41
2022-02-22T10:58:00,mcc,51.01
2022-02-22T10:59:00,mcc,54.01
2022-02-22T11:00:00,mcc,51.54
2022-02-22T11:01:00,mcc,59.33
2022-02-22T11:02:00,mcc,64.21
2022-02-22T11:03:00,mcc,65.73
2022-02-22T11:04:00,mcc,60.53
2022-02-22T11:05:00,mcc,65.15
2022-02-22T11:06:00,mcc,63.73
2022-02-22T11:07:00,mcc,61.26
2022-02-22T11:08:00,mcc,69.01
2022-02-22T11:09:00,mcc,64.31
2022-02-22T11:10:00,mcc,79.58
2022-02-22T11:11:00,mcc,64.17
2022-02-22T11:12:00,mcc,61.22
2022-02-22T11:13:00,mcc,63.80
2022-02-22T11:14:00,mcc,58.81
2022-02-22T11:15:00,mcc,66.69
2022-02-22T11:16:00,mcc,64.06
2022-02-22T11:17:00,mcc,63.03
2022-02-22T11:18:00,mcc,65.85
2022-02-22T11:19:00,mcc,75.48
2022-02-22T11:20:00,mcc,65.17
2022-02-22T11:21:00,mcc,67.38
2022-02-22T11:22:00,mcc,64.45
2022-02-22T11:23:00,mcc,71.08
2022-02-22T11:24:00,mcc,66.54
2022-02-22T11:25:00,mcc,68.59
2022-02-22T11:26:00,mcc,70.11
2022-02-22T11:27:00,mcc,65.05
2022-02-22T11:28:00,mcc,64.92
2022-02-22T11:29:00,mcc,65.83
2022-02-22T11:30:00,mcc,67.67
2022-02-22T11:31:00,mcc,67.64
2022-02-22T11:32:00,mcc,77.69
2022-02-22T11:33:00,mcc,67.38
2022-02-22T11:34:00,mcc,65.63
2022-02-22T11:35:00,mcc,75.11
2022-02-22T11:36:00,mcc,64.85
2022-02-22T11:37:00,mcc,64.60
2022-02-22T11:38:00,mcc,62.98
2022-02-22T11:39:00,mcc,64.49
2022-02-22T11:40:00,mcc,64.09
2022-02-22T11:41:00,mcc,62.86
2022-02-22T11:42:00,mcc,70.26
2022-02-22T11:43:00,mcc,66.08
2022-02-22T11:44:00,mcc,63.56
2022-02-22T11:45:00,mcc,64.22
2022-02-22T11:46:00,mcc,66.62
2022-02-22T11:47:00,mcc,63.01
2022-02-22T11:48:00,mcc,65.85
2022-02-22T11:49:00,mcc,65.45
2022-02-22T11:50:00,mcc,71.29
2022-02-22T11:51:00,mcc,68.02
2022-02-22T11:52:00,mcc,65.22
2022-02-22T11:53:00,mcc,65.04
2022-02-22T11:54:00,mcc,67.25
2022-02-22T11:55:00,mcc,72.50
2022-02-22T11:56:00,mcc,62.68
2022-02-22T11:57:00,mcc,62.84
2022-02-22T11:58:00,mcc,64.47
2022-02-22T11:59:00,mcc,60.99
2022-02-22T12:00:00,mcc,61.09
2022-02-22T12:01:00,mcc,62.51
2022-02-22T12:02:00,mcc,62.45
2022-02-22T12:03:00,mcc,57.15
2022-02-22T12:04:00,mcc,58.31
2022-02-22T12:05:00,mcc,64.50
2022-02-22T12:06:00,mcc,64.33
2022-02-22T12:07:00,mcc,62.68
2022-02-22T12:08:00,mcc,64.92
2022-02-22T12:09:00,mcc,61.87
2022-02-22T12:10:00,mcc,62.84
2022-02-22T12:11:00,mcc,61.26
2022-02-22T12:12:00,mcc,60.21
2022-02-22T12:13:00,mcc,75.57
2022-02-22T12:14:00,mcc,59.86
2022-02-22T12:15:00,mcc,69.10
2022-02-22T12:16:00,mcc,66.28
2022-02-22T12:17:00,mcc,65.41
2022-02-22T12:18:00,mcc,67.46
2022-02-22T12:19:00,mcc,66.90
2022-02-22T12:20:00,mcc,64.86
2022-02-22T12:21:00,mcc,61.70
2022-02-22T12:22:00,mcc,61.40
2022-02-22T12:23:00,mcc,61.40
2022-02-22T12:24:00,mcc,63.90
2022-02-22T12:25:00,mcc,61.95
2022-02-22T12:26:00,mcc,62.61
2022-02-22T12:27:00,mcc,72.47
2022-02-22T12:28:00,mcc,70.91
2022-02-22T12:29:00,mcc,64.44
2022-02-22T12:30:00,mcc,66.12
2022-02-22T12:31:00,mcc,63.71
2022-02-22T12:32:00,mcc,64.32
2022-02-22T12:33:00,mcc,61.00
2022-02-22T12:34:00,mcc,67.05
2022-02-22T12:35:00,mcc,62.83
2022-02-22T12:36:00,mcc,61.50
2022-02-22T12:37:00,mcc,61.69
2022-02-22T12:38:00,mcc,61.05
2022-02-22T12:39:00,mcc,60.69
2022-02-22T12:40:00,mcc,64.23
2022-02-22T12:41:00,mcc,76.89
2022-02-22T12:42:00,mcc,66.91
2022-02-22T12:43:00,mcc,63.62
2022-02-22T12:44:00,mcc,64.97
2022-02-22T12:45:00,mcc,61.20
2022-02-22T12:46:00,mcc,74.09
2022-02-22T12:47:00,mcc,71.38
2022-02-22T12:48:00,mcc,64.27
2022-02-22T12:49:00,mcc,63.11
2022-02-22T12:50:00,mcc,62.88
2022-02-22T12:51:00,mcc,60.87
2022-02-22T12:52:00,mcc,63.24
2022-02-22T12:53:00,mcc,60.83
2022-02-22T12:54:00,mcc,59.95
2022-02-22T12:55:00,mcc,61.19
2022-02-22T12:56:00,mcc,59.68
2022-02-22T12:57:00,mcc,59.37
2022-02-22T12:58:00,mcc,62.15
2022-02-22T12:59:00,mcc,62.30
2022-02-22T13:00:00,mcc,69.83
2022-02-22T13:01:00,mcc,62.75
2022-02-22T13:02:00,mcc,63.92
2022-02-22T13:03:00,mcc,67.99
2022-02-22T13:04:00,mcc,63.00
2022-02-22T13:05:00,mcc,62.80
2022-02-22T13:06:00,mcc,73.46
2022-02-22T13:07:00,mcc,62.08
2022-02-22T13:08:00,mcc,63.71
2022-02-22T13:09:00,mcc,65.53
2022-02-22T13:10:00,mcc,65.03
2022-02-22T13:11:00,mcc,64.01
2022-02-22T13:12:00,mcc,69.25
2022-02-22T13:13:00,mcc,72.49
2022-02-22T13:14:00,mcc,61.73
2022-02-22T13:15:00,mcc,64.50
2022-02-22T13:16:00,mcc,63.35
2022-02-22T13:17:00,mcc,65.67
2022-02-22T13:18:00,mcc,63.56